User: anonymous   Login
Location: Vancouver
(49.2500°N, 123.1330°W)
Time: 06:13:12
(UTC-07:00)
Language:

SO-67 - Orbit

View from above orbital plane
View from above orbital plane
View from above satellite
View from above satellite

Ground track
Ground track

The orbit data is extracted from the following two-line orbital elements,

1 35870U 09049F   15188.08260486  .00012099  00000-0  28239-3 0  9990
2 35870 097.1346 203.9860 0003249 117.4187 326.1843 15.42346195323184
Epoch (UTC): 07 July 2015 01:58:57
Eccentricity: 0.0003249
inclination: 97.1346°
perigee height: 437 km
apogee height: 441 km
right ascension of ascending node: 203.9860°
argument of perigee: 117.4187°
revolutions per day: 15.42346195
mean anomaly at epoch: 326.1843°
orbit number at epoch: 32318

The dashed part of the orbit path shows where the satellite is in the earth's shadow,  

DLR